EUTELSAT 70B

Last updated on Sat Sep 05 2026 00:03:03 GMT+0000 (Coordinated Universal Time)

1 39020U 12069A 26247.60988671 -.00000050 00000+0 00000+0 0 9992 2 39020 0.0649 344.1591 0003692 177.8462 111.7767 1.00271511 50303
UTC large
Height (km)
Speed (km/s)
/
Latitude / Longitude
Inclination (degrees)
Orbital Period (minutes)
Azimuth
Elevation
Range (km)
Doppler Factor

Next 0 passes for location: London (51.5072 / 0.1276)

No passes found over London.
EUTELSAT 70B